Probability
0 0 0 0 0 0 0 0 0 0 0 0 0 0 0 0 0 0 0 0 0 0 0 0 0 0 0 0 0 0 0 0 0 0 0 0 0 0 0 0 0 0 0 0
0 0 0 0 0 0 0 0 0 0 0 0 0 0 0 0 0 0 0 0 0 0 0 0 0 0 0 0 0 0 0 0 0 0 0 0 0 0 0 0 0 0 0 0
0 0 0 0 0 0 0 0 0 0 0 0 0 0 0 0 0 0 0 0 0 0 0 0 0 0 0 0 0 0 0 0 0 0 0 0 0 0 0 0 0 0 0 0
0 0 0 0 0 0 0 0 0 0 0 0 0 0 0 0 0 0 0 0 0 0 0 0 0 0 0 0 0 0 0 0 0 0 0 0 0 0 0 0 0 0 0 0
0 0 0 0 0 0 0 0 0 0 0 0 0 0 0 0 0 0 0 0 0 0 0 0 0 0 0 0 0 0 0 0 0 0 0 0 0 0 0 0 0 0 0 0
0 0 0 0 0 0 0 0 0 0 0 0 0 0 0 0 0 0 0 0 0 0 0 0 0 0 0 0 0 0 0 0 0 0 0 0 0 0 0 0 0 0 0 0
0 0 0 0 0 0 0 0 0 0 0 0 0 0 0 0 0 0 0 0 0 0 0 0 0 0 0 0 0 0 0 0 0 0 0 0 0 0 0 0 0 0 0 0
0 0 0 0 0 0 0 0 0 0 0 0 0 0 0 0 0 0 0 0 0 0 0 0 0 0 0 0 0 0 0 0 0 0 0 0 0 0 0 0 0 0 0 0
0 0 0 0 0 0 0 0 0 0 0 0 0 0 0 0 0 0 0 0 0 0 0 0 0 0 0 0 0 0 0 0 0 0 0 0 0 0 0 0 0 0 0 0
0 0 0 0 0 0 0 0 0 0 0 0 0 0 0 0 0 0 0 0 0 0 0 0 0 0 0 0 0 0 0 0 0 0 0 0 0 0 0 0 0 0 0 0
0 0 0 0 0 0 0 0 0 0 0 0 0 0 0 0 0 0 0 0 0 0 0 0 0 0 0 0 0 0 0 0 0 0 0 0 0 0 0 0 0 0 0 0
0 0 0 0 0 0 0 0 0 0 0 0 0 0 0 0 0 0 0 0 0 0 0 0 0 0 0 0 0 0 0 0 0 0 0 0 0 0 0 0 0 0 0 0
0 0 0 0 0 0 0 0 0 0 0 0 0 0 0 0 0 0 0 0 0 0 0 0 0 0 0 0 0 0 0 0 0 0 0 0 0 0 0 0 0 0 0 0
0 0 0 0 0 0 0 0 0 0 0 0 0 0 0 0 0 0 0 0 0 0 0 0 0 0 0 0 0 0 0 0 0 0 0 0 0 0 0 0 0 0 0 0
0 0 0 0 0 0 0 0 0 0 0 0 0 0 0 0 0 0 0 0 0 0 0 0 0 0 0 0 0 0 0 0 0 0 0 0 0 0 0 0 0 0 0 0
0 0 0 0 0 0 0 0 0 0 0 0 0 0 0 0 0 0 0 0 0 0 0 0 0 0 0 0 0 0 0 0 0 0 0 0 0 0 0 0 0 0 0 0
0 0 0 0 0 0 0 0 0 0 0 0 0 0 0 0 0 0 0 0 0 0 0 0 0 0 0 0 0 0 0 0 0 0 0 0 0 0 0 0 0 0 0 0
0 0 0 0 0 0 0 0 0 0 0 0 0 0 0 0 0 0 0 0 0 0 0 0 0 0 0 0 0 0 0 0 0 0 0 0 0 0 0 0 0 0 0 0
0 0 0 0 0 0 0 0 0 0 0 0 0 0 0 0 0 0 0 0 0 0 0 0 0 0 0 0 0 0 0 0 0 0 0 0 0 0 0 0 0 0 0 0
0 0 0 0 0 0 0 0 0 0 0 0 0 0 0 0 0 0 0 0 0 0 0 0 0 0 0 0 0 0 0 0 0 0 0 0 0 0 0 0 0 0 0 0
0 0 0 0 0 0 0 0 0 0 0 0 0 0 0 0 0 0 0 0 0 0 0 0 0 0 0 0 0 0 0 0 0 0 0 0 0 0 0 0 0 0 0 0
0 0 0 0 0 0 0 0 0 0 0 0 0 0 0 0 0 0 0 0 0 0 0 0 0 0 0 0 0 0 0 0 0 0 0 0 0 0 0 0 0 0 0 0
0 0 0 0 0 0 0 0 0 0 0 0 0 0 0 0 0 0 0 0 0 0 0 0 0 0 0 0 0 0 0 0 0 0 0 0 0 0 0 0 0 0 0 0
0 0 0 0 0 0 0 0 0 0 0 0 0 0 0 0 0 0 0 0 0 0 0 0 0 0 0 0 0 0 0 0 0 0 0 0 0 0 0 0 0 0 0 0
0 0 0 0 0 0 0 0 0 0 0 0 0 0 0 0 0 0 0 0 0 0 0 0 0 0 0 0 0 0 0 0 0 0 0 0 0 0 0 0 0 0 0 0
0 0 0 0 0 0 0 0 0 0 0 0 0 0 0 0 0 0 0 0 0 0 0 0 0 0 0 0 0 0 0 0 0 0 0 0 0 0 0 0 0 0 0 0
0 0 0 0 0 0 0 0 0 0 0 0 0 0 0 0 0 0 0 0 0 0 0 0 0 0 0 0 0 0 0 0 0 0 0 0 0 0 0 0 0 0 0 0
Height
5784 5781 5776 5774 5773 5770 5764 5759 5753 5750 5745 5742 5736 5731 5727 5722 5717 5713 5708 5703 5698 5693 5688 5683 5677 5671 5664 5658 5650 5643 5636 5628 5620 5611 5603 5595 5586 5577 5568 5558 5549 5539 5528 5518
5775 5773 5768 5765 5766 5761 5756 5750 5745 5740 5736 5732 5724 5719 5714 5709 5704 5700 5696 5691 5686 5681 5675 5670 5664 5657 5651 5644 5637 5629 5622 5614 5605 5597 5589 5580 5572 5563 5554 5546 5536 5526 5516 5506
5763 5762 5758 5757 5757 5751 5746 5741 5735 5729 5725 5719 5714 5709 5703 5698 5693 5688 5683 5678 5673 5668 5662 5656 5650 5643 5636 5630 5622 5614 5606 5598 5590 5582 5574 5566 5558 5550 5541 5532 5523 5514 5504 5494
5751 5749 5745 5750 5745 5739 5733 5730 5724 5717 5712 5706 5701 5697 5691 5685 5680 5675 5670 5665 5659 5653 5647 5642 5635 5627 5620 5614 5606 5599 5591 5583 5574 5566 5559 5551 5543 5536 5527 5519 5511 5502 5492 5483
5741 5735 5731 5736 5733 5726 5719 5717 5711 5703 5697 5692 5687 5683 5680 5673 5667 5661 5656 5650 5644 5638 5631 5625 5618 5610 5604 5597 5590 5582 5574 5566 5559 5551 5544 5537 5529 5521 5514 5506 5498 5489 5480 5471
5731 5724 5720 5724 5718 5710 5706 5702 5696 5689 5683 5678 5672 5667 5666 5662 5655 5649 5643 5636 5628 5622 5615 5608 5601 5593 5587 5580 5573 5566 5558 5551 5544 5536 5529 5522 5515 5508 5500 5493 5485 5477 5469 5460
5720 5712 5710 5711 5704 5697 5693 5689 5682 5676 5670 5664 5659 5653 5649 5645 5639 5633 5626 5619 5612 5605 5598 5592 5584 5577 5571 5564 5557 5550 5543 5537 5530 5523 5515 5509 5501 5494 5487 5480 5473 5466 5458 5449
5708 5702 5702 5697 5691 5685 5679 5674 5668 5662 5656 5650 5645 5640 5634 5629 5623 5616 5610 5603 5596 5589 5583 5576 5569 5562 5556 5549 5543 5536 5529 5522 5516 5509 5502 5495 5489 5482 5475 5468 5461 5454 5446 5438
5698 5695 5690 5684 5677 5672 5665 5659 5654 5648 5643 5637 5631 5626 5620 5614 5608 5601 5594 5588 5581 5574 5568 5562 5555 5548 5541 5536 5529 5523 5516 5509 5503 5496 5490 5483 5476 5469 5463 5456 5449 5442 5435 5427
5685 5683 5678 5671 5664 5658 5652 5646 5641 5635 5629 5622 5616 5611 5605 5599 5593 5586 5580 5573 5567 5561 5555 5549 5542 5535 5528 5522 5516 5510 5504 5497 5490 5484 5477 5471 5464 5458 5451 5444 5438 5431 5424 5416
5671 5669 5663 5660 5652 5646 5640 5634 5628 5622 5616 5609 5603 5597 5591 5585 5579 5573 5567 5561 5555 5549 5543 5537 5530 5523 5516 5509 5503 5497 5490 5484 5477 5471 5464 5458 5452 5446 5439 5433 5426 5420 5413 5406
5657 5654 5647 5645 5639 5632 5627 5621 5615 5609 5603 5597 5590 5585 5579 5573 5567 5561 5555 5549 5543 5536 5530 5524 5517 5510 5503 5496 5489 5483 5476 5470 5464 5457 5451 5445 5439 5434 5427 5422 5415 5409 5402 5395
5642 5639 5633 5629 5624 5618 5612 5607 5601 5595 5590 5584 5578 5572 5566 5561 5555 5549 5542 5536 5529 5523 5517 5510 5504 5497 5489 5482 5475 5468 5462 5456 5449 5443 5437 5432 5426 5421 5415 5410 5404 5398 5392 5385
5627 5623 5619 5615 5610 5604 5599 5593 5588 5582 5576 5570 5565 5559 5553 5548 5542 5536 5529 5522 5516 5510 5503 5496 5490 5483 5476 5469 5461 5454 5447 5441 5434 5429 5423 5418 5413 5408 5403 5398 5393 5387 5382 5376
5612 5607 5603 5599 5595 5590 5584 5579 5575 5569 5564 5558 5552 5546 5541 5535 5529 5523 5516 5510 5503 5497 5490 5483 5476 5469 5462 5454 5447 5440 5433 5426 5420 5414 5409 5404 5399 5395 5391 5387 5382 5377 5372 5366
5596 5592 5588 5584 5580 5575 5570 5565 5561 5556 5550 5545 5540 5534 5528 5522 5517 5510 5503 5496 5490 5483 5476 5470 5463 5455 5448 5440 5433 5426 5419 5412 5406 5400 5395 5390 5386 5382 5379 5375 5372 5367 5363 5358
5580 5576 5573 5569 5565 5560 5555 5551 5546 5541 5537 5532 5527 5521 5516 5510 5504 5498 5491 5484 5476 5469 5462 5455 5449 5441 5433 5426 5419 5412 5405 5399 5392 5387 5382 5378 5374 5370 5367 5364 5361 5358 5354 5349
5564 5561 5558 5554 5550 5546 5541 5537 5532 5527 5523 5518 5513 5508 5502 5496 5490 5485 5478 5472 5465 5458 5449 5442 5435 5427 5420 5412 5405 5399 5392 5386 5380 5374 5370 5366 5362 5359 5357 5354 5352 5349 5345 5341
5549 5546 5542 5538 5534 5530 5527 5522 5518 5514 5509 5504 5499 5494 5488 5482 5476 5471 5465 5458 5451 5445 5438 5430 5422 5415 5407 5400 5393 5386 5380 5374 5368 5363 5359 5355 5352 5349 5347 5345 5343 5341 5338 5334
5534 5531 5527 5524 5520 5516 5512 5508 5504 5500 5495 5490 5485 5480 5475 5469 5463 5458 5452 5445 5437 5431 5425 5418 5411 5403 5396 5389 5382 5375 5369 5363 5358 5353 5349 5345 5342 5340 5338 5337 5335 5333 5330 5327
5520 5517 5513 5510 5506 5503 5498 5493 5489 5486 5482 5476 5471 5466 5462 5456 5450 5444 5439 5434 5427 5419 5413 5406 5399 5392 5385 5378 5371 5364 5358 5353 5348 5343 5340 5336 5334 5332 5331 5330 5328 5326 5324 5321
5506 5502 5499 5496 5492 5489 5485 5480 5476 5472 5468 5463 5458 5453 5448 5444 5438 5433 5427 5420 5415 5409 5402 5395 5388 5381 5374 5368 5361 5355 5349 5343 5339 5335 5332 5329 5327 5326 5325 5324 5322 5320 5318 5315
5492 5488 5485 5482 5478 5475 5472 5467 5462 5458 5454 5450 5445 5440 5435 5431 5426 5421 5416 5410 5403 5397 5391 5384 5377 5371 5364 5358 5351 5345 5340 5335 5330 5327 5324 5322 5321 5320 5319 5318 5316 5315 5313 5311
5478 5475 5471 5468 5464 5461 5458 5454 5450 5445 5441 5437 5432 5427 5422 5419 5414 5409 5403 5398 5392 5386 5380 5374 5367 5361 5355 5348 5343 5337 5331 5326 5323 5320 5317 5316 5315 5314 5313 5312 5312 5311 5309 5307
5464 5461 5457 5454 5450 5447 5443 5440 5437 5433 5428 5425 5421 5416 5411 5406 5402 5398 5392 5387 5382 5376 5370 5364 5358 5351 5345 5340 5334 5328 5323 5319 5316 5313 5312 5311 5310 5309 5309 5309 5308 5307 5305 5303
5450 5447 5443 5440 5436 5433 5429 5426 5423 5420 5416 5413 5410 5405 5400 5395 5391 5386 5381 5376 5371 5366 5360 5355 5349 5343 5337 5332 5326 5321 5316 5312 5310 5309 5307 5306 5306 5306 5306 5305 5305 5304 5303 5301
5437 5433 5430 5427 5424 5420 5416 5413 5410 5408 5404 5401 5398 5394 5390 5385 5381 5376 5371 5366 5361 5356 5351 5345 5340 5334 5329 5324 5319 5314 5311 5308 5306 5305 5304 5304 5304 5304 5303 5303 5302 5302 5300 5298
Wind_Speed
37 37 40 41 38 38 41 42 46 47 48 47 48 49 50 51 52 53 53 54 55 56 57 58 59 59 60 61 62 62 63 64 65 66 66 66 66 65 65 65 66 67 67 67
41 39 42 42 38 39 42 43 46 47 48 48 51 52 53 54 55 56 56 57 57 58 59 60 60 61 61 62 63 64 65 66 66 67 67 67 66 65 65 65 65 65 66 66
46 44 46 43 41 42 43 43 45 48 50 51 53 54 56 57 58 58 58 59 60 60 61 62 62 63 64 65 66 66 67 67 68 68 67 66 65 65 64 64 64 64 64 64
51 50 51 47 45 46 47 47 48 51 53 55 57 57 58 60 61 60 61 62 63 64 64 64 65 66 67 66 66 67 68 68 68 67 66 65 64 63 63 63 63 63 63 63
53 55 55 50 48 50 52 51 52 55 57 59 60 60 59 60 62 63 64 65 66 66 67 66 67 68 68 68 68 68 68 68 68 66 64 63 62 61 61 61 61 61 61 61
51 54 55 52 52 53 54 55 55 57 59 61 62 64 62 61 63 64 65 66 67 67 67 68 68 69 69 68 67 67 66 65 63 61 60 59 59 59 58 58 58 58 59 59
50 53 53 52 53 55 56 57 57 59 61 62 64 65 65 65 65 65 66 66 66 67 67 67 67 66 65 64 63 62 61 59 58 57 56 56 56 55 55 54 54 55 56 57
50 52 52 52 53 55 57 58 60 61 63 64 65 65 66 66 65 65 65 64 64 64 63 62 62 61 59 58 58 57 56 56 55 55 54 54 54 53 52 52 52 54 54 55
50 50 50 51 53 55 58 60 61 62 63 64 65 64 64 64 63 62 61 61 60 59 57 56 56 56 54 54 54 53 54 54 54 53 53 54 53 52 51 51 51 51 52 53
50 50 50 52 55 56 58 60 60 61 61 61 62 61 61 61 60 58 57 56 55 53 53 52 52 52 53 53 53 53 54 54 53 53 53 53 52 50 49 49 49 49 50 51
51 51 53 53 55 56 58 58 58 58 59 59 59 58 57 56 55 54 53 53 53 53 52 52 53 53 54 54 54 54 54 54 54 54 53 52 51 50 49 47 47 47 48 49
54 54 56 55 56 57 57 57 58 57 57 56 56 55 54 54 53 53 53 53 53 53 53 53 53 54 55 55 55 55 55 55 54 54 53 52 51 50 48 47 46 46 47 47
56 56 57 57 57 58 58 57 57 56 56 55 54 54 53 52 52 53 53 54 54 54 54 54 54 55 55 55 56 56 55 55 55 54 53 52 51 49 47 46 45 45 45 45
58 58 57 57 57 57 57 56 55 54 54 54 53 53 53 53 53 53 53 54 54 54 54 54 55 55 55 55 55 55 55 54 54 53 52 50 49 47 45 44 43 43 43 44
58 58 58 57 56 56 55 54 53 53 52 52 53 54 54 53 52 53 54 54 54 54 54 54 55 55 55 55 55 54 53 53 52 51 49 48 46 45 43 42 41 40 41 42
58 57 57 56 55 55 55 54 53 53 53 53 53 53 53 53 53 53 54 54 54 54 54 54 55 55 55 55 54 52 52 52 51 49 47 45 44 42 40 39 38 38 39 39
56 55 54 54 54 54 54 54 54 54 53 53 53 53 53 53 53 53 53 53 53 53 54 54 54 54 54 54 52 51 50 49 48 46 43 42 41 39 37 35 35 35 35 36
54 54 54 54 53 53 53 53 53 53 53 53 53 53 53 53 53 52 52 51 51 51 53 53 53 53 53 53 52 50 49 47 46 43 41 39 38 36 34 32 31 32 33 34
52 53 53 52 52 52 52 52 52 52 52 53 53 52 52 52 52 51 51 50 51 51 50 51 51 51 50 50 49 48 46 45 43 41 38 37 35 32 31 29 29 29 30 31
51 51 51 51 51 51 51 51 51 51 52 52 52 51 50 50 50 50 49 50 51 50 49 48 49 49 49 49 48 47 45 43 41 38 36 34 31 29 27 27 27 28 28 29
50 50 50 50 50 50 50 50 50 50 50 50 50 49 48 48 48 48 48 47 47 47 47 48 48 48 47 47 46 45 42 40 38 36 33 31 28 25 25 25 26 26 25 26
49 49 49 50 50 49 48 49 49 49 48 48 47 47 47 46 46 46 46 47 46 47 47 47 47 46 45 45 44 42 39 37 35 32 30 28 25 23 23 24 24 23 22 23
48 48 48 48 48 48 47 47 47 47 47 46 46 46 45 45 45 45 44 45 46 46 46 46 46 45 44 44 42 39 37 35 33 30 28 25 23 22 22 21 20 20 20 21
46 47 47 48 48 47 47 46 46 46 45 44 44 44 44 43 43 44 45 45 45 44 45 45 45 44 43 42 40 38 35 33 30 27 24 22 20 19 18 18 17 17 18 18
46 47 47 47 47 47 47 45 44 43 42 41 40 41 42 43 43 44 44 44 43 43 44 44 43 42 41 39 38 36 34 30 26 22 19 19 18 16 15 14 14 15 15 16
46 47 47 46 46 45 44 42 41 40 39 38 38 40 41 42 42 43 42 42 42 42 42 42 41 40 39 37 36 34 30 25 21 19 17 15 13 12 11 11 12 13 14 15
44 45 45 44 43 43 41 41 40 39 38 38 38 39 40 40 40 40 40 40 40 40 41 41 39 38 36 34 32 29 24 21 18 16 13 11 10 10 10 10 11 11 12 14
Wind_Direction
296 297 296 297 300 301 299 299 298 300 300 301 298 296 296 295 295 295 295 295 296 296 297 298 298 299 300 300 301 303 304 305 305 306 307 309 311 312 314 315 316 318 319 320
294 295 294 296 301 299 298 298 297 297 297 297 295 296 296 296 296 296 297 297 298 298 299 299 300 300 300 301 302 303 304 305 305 306 307 309 310 312 313 314 316 318 318 319
294 294 293 296 299 298 297 296 296 296 295 293 293 294 295 295 296 297 297 298 298 299 299 300 300 300 300 301 303 303 304 305 305 306 308 309 310 311 312 313 315 317 318 319
295 296 295 299 301 299 296 296 296 295 293 292 293 294 295 295 297 298 299 299 299 300 300 300 300 300 301 302 303 303 304 304 305 306 307 308 309 311 311 313 314 315 317 318
294 295 296 299 300 298 297 297 297 295 295 295 295 295 295 297 298 299 300 300 300 300 300 300 300 300 301 302 302 303 303 304 305 306 306 307 309 309 310 311 313 314 316 317
294 295 297 301 301 299 298 298 298 297 296 296 297 297 298 298 298 298 299 299 300 300 300 300 301 301 302 303 304 304 305 306 306 307 307 308 308 308 310 311 312 314 315 317
297 296 298 302 300 299 299 299 297 296 296 296 297 298 300 300 301 301 301 301 300 300 300 300 301 302 303 304 305 305 306 307 307 308 309 309 309 309 310 311 312 313 314 316
296 296 301 300 299 298 297 297 296 296 297 298 299 300 300 301 301 301 301 301 301 301 302 302 302 303 304 304 305 306 307 308 308 309 310 311 311 310 310 310 311 312 313 315
296 298 298 297 296 296 296 297 298 298 299 300 301 301 301 301 302 302 303 302 302 303 304 305 305 305 305 306 306 307 308 308 308 309 310 311 311 312 311 311 311 312 313 315
295 296 295 295 295 296 296 298 300 301 301 301 302 302 303 303 304 304 304 304 304 305 306 307 308 308 307 307 307 307 308 308 308 308 309 310 310 311 311 311 311 312 313 314
294 295 293 294 295 295 296 297 299 300 301 302 303 303 304 304 305 305 306 306 307 307 307 308 308 308 308 307 307 307 307 307 307 307 308 308 309 311 311 311 311 311 312 313
293 293 294 296 296 297 298 298 299 300 301 302 303 303 304 304 305 305 305 306 306 307 307 308 308 308 308 308 308 308 307 307 307 307 307 307 308 309 310 310 311 311 311 313
291 292 293 295 296 296 297 298 299 300 301 301 301 302 304 304 305 305 305 306 306 307 307 308 308 309 309 308 308 308 307 306 306 306 305 305 305 306 307 308 310 310 311 312
290 291 293 294 294 295 296 298 298 299 300 300 301 302 304 305 306 307 307 307 307 308 308 308 309 310 310 309 308 308 307 307 306 305 304 304 303 303 304 306 308 309 310 312
289 290 292 293 293 294 295 296 297 298 298 300 301 303 304 305 306 306 307 307 308 308 308 309 309 310 310 309 309 309 308 308 307 306 304 303 303 302 301 303 305 307 309 310
288 289 290 291 292 293 293 294 295 296 297 299 301 302 303 304 305 306 307 308 308 308 308 309 310 310 311 311 310 309 308 308 307 306 304 303 302 301 299 300 303 306 308 310
287 288 288 289 290 291 292 293 294 295 296 298 300 301 303 304 305 306 307 308 308 309 310 310 311 311 312 312 311 310 310 309 308 307 305 303 302 301 299 300 303 305 307 310
286 287 288 288 289 289 290 291 294 295 296 298 300 301 303 304 305 306 307 308 308 309 310 311 312 313 313 313 312 310 310 310 309 307 305 305 304 301 299 299 301 303 307 310
286 287 288 288 289 289 291 292 293 295 296 298 300 302 303 304 305 306 307 308 309 310 311 311 313 313 314 315 314 313 311 310 310 308 306 305 303 301 298 297 299 302 306 310
286 286 287 288 289 291 293 294 295 296 297 299 300 302 303 304 306 307 308 309 310 311 313 313 314 314 315 315 315 314 312 310 310 308 306 304 302 298 296 297 299 301 305 310
287 287 288 289 291 293 295 296 297 298 299 300 302 303 304 305 306 307 309 310 311 313 314 315 315 315 316 316 316 314 312 311 309 306 305 304 301 295 294 297 300 302 305 310
288 288 289 290 291 293 294 296 298 299 300 301 302 303 304 305 306 307 309 311 312 313 315 315 315 316 317 317 317 316 314 311 310 307 304 304 298 292 293 296 300 303 306 310
289 290 291 291 292 292 294 296 298 299 300 301 302 303 303 305 306 308 309 311 312 314 315 316 316 316 317 318 318 316 314 311 309 306 303 300 294 293 294 296 300 303 307 311
290 290 291 292 292 293 294 296 297 298 299 300 301 302 304 305 306 308 310 311 313 314 316 317 317 317 317 318 318 316 314 312 309 306 300 295 292 292 293 296 299 304 308 312
289 290 291 292 292 293 294 294 295 296 296 298 301 302 304 305 307 308 309 311 312 314 316 317 318 318 318 318 318 318 315 313 309 304 297 293 291 290 293 295 300 307 311 316
289 290 291 292 293 294 294 294 295 295 296 298 300 302 304 305 307 308 310 311 312 313 314 316 317 318 319 318 318 318 317 314 308 304 299 294 290 291 294 297 304 309 314 320
289 290 291 292 293 294 295 296 296 296 297 299 301 303 304 306 307 308 310 311 311 312 314 315 316 318 318 318 319 318 316 314 308 301 296 292 291 294 298 301 308 314 318 325